Date String (YYYY-MM-DD hh:mm:ss) UTC,Instrument flags,Ambient pressure (hPa),Sample flow (lpm),Bypass flow (lpm),Sample temperature (°C),Ambient temperature (°C),ASC tube jacket temperature (°C),LED temperature (°C),Box temperature (°C),Sample RH (%),Span deviation,Mass concentration (μg/m³),Mass concentration (μg/m³),Mass concentration (μg/m³)
DateTimeUTC,F1_M11,P_M11,Q1_M11,Q2_M11,T1_M11,T2_M11,T3_M11,T4_M11,T5_M11,U1_M11,ZSPAN_M11,X0_M11,X2_M11,X1_M11
2022-01-27 10:00:00,,0828.8,5.00,0.00,21.9,21.1,00.0,31.0,23.5,08.8,-000.5,0011.55,0006.53,0005.95
2022-01-27 10:01:00,,0828.5,5.00,0.00,21.8,21.0,00.0,30.9,23.4,08.8,-000.4,0011.34,0006.55,0005.95
2022-01-27 10:02:00,,0828.5,5.00,0.00,21.8,20.9,00.0,30.9,23.3,08.6,0000.0,0011.20,0006.41,0005.87
2022-01-27 10:03:00,,0828.4,5.00,0.00,21.7,20.8,00.0,30.9,23.3,08.6,0000.0,0011.33,0006.29,0005.75
2022-01-27 10:04:00,,0828.4,5.00,0.00,21.7,20.8,00.0,30.9,23.2,08.7,-000.7,0011.29,0006.19,0005.65
2022-01-27 10:05:00,,0828.4,5.01,0.00,21.7,21.5,00.0,30.9,23.4,08.7,0000.0,0011.13,0006.05,0005.53
2022-01-27 10:06:00,,0828.5,5.00,0.00,21.9,22.3,00.0,30.9,23.7,08.6,0000.0,0010.99,0005.94,0005.44
2022-01-27 10:07:00,,0828.4,5.00,0.00,22.0,22.7,00.0,30.9,23.9,08.4,0000.0,0010.79,0005.79,0005.29
2022-01-27 10:08:00,,0828.5,5.00,0.00,22.0,22.4,00.0,30.9,23.9,08.4,0000.0,0010.74,0005.67,0005.17
2022-01-27 10:09:00,,0828.4,4.99,0.00,22.0,22.1,00.0,30.9,23.7,08.3,0000.0,0010.06,0005.48,0005.02
2022-01-27 10:10:00,,0828.5,5.01,0.00,21.9,21.8,00.0,30.9,23.6,08.5,0000.0,0009.90,0005.38,0004.91
2022-01-27 10:11:00,,0828.5,5.00,0.00,21.9,21.5,00.0,30.9,23.5,08.5,0000.0,0009.46,0005.29,0004.83
2022-01-27 10:12:00,,0828.5,5.00,0.00,21.8,21.4,00.0,30.9,23.4,08.5,0000.0,0009.26,0005.20,0004.76
2022-01-27 10:13:00,,0828.5,5.00,0.00,21.8,21.2,00.0,30.9,23.4,08.5,0000.0,0008.74,0005.19,0004.74
2022-01-27 10:14:00,,0828.7,5.00,0.00,21.7,21.2,00.0,30.9,23.3,08.5,0000.0,0008.44,0005.22,0004.76
2022-01-27 10:15:00,,0828.7,5.00,0.00,21.7,21.0,00.0,30.8,23.2,08.3,0000.0,0008.45,0005.13,0004.70
2022-01-27 10:16:00,,0829.1,5.00,0.00,21.6,20.9,00.0,30.8,23.1,08.3,0000.0,0008.44,0005.03,0004.62
2022-01-27 10:17:00,,0828.9,4.99,0.00,21.5,20.7,00.0,30.8,23.0,08.4,0000.0,0008.39,0004.95,0004.55
2022-01-27 10:18:00,,0828.6,5.00,0.00,21.5,20.8,00.0,30.7,23.0,08.5,0000.0,0008.36,0004.92,0004.53
2022-01-27 10:19:00,,0828.7,4.99,0.00,21.6,21.6,00.0,30.8,23.3,08.5,0000.0,0008.29,0004.91,0004.52
2022-01-27 10:20:00,,0828.6,5.01,0.00,21.8,22.5,00.0,30.8,23.6,08.5,0000.0,0008.33,0004.93,0004.55
2022-01-27 10:21:00,,0828.5,4.99,0.00,21.9,22.8,00.0,30.8,23.8,08.4,0000.0,0008.32,0004.91,0004.55
2022-01-27 10:22:00,,0828.7,5.00,0.00,21.9,22.5,00.0,30.9,23.8,08.4,0000.0,0008.23,0004.87,0004.52
2022-01-27 10:23:00,,0828.7,4.99,0.00,21.9,22.2,00.0,30.9,23.7,08.4,0000.0,0008.27,0004.88,0004.52
2022-01-27 10:24:00,,0828.9,5.02,0.00,21.9,21.9,00.0,30.9,23.6,08.4,0000.0,0008.29,0004.87,0004.51
2022-01-27 10:25:00,,0828.8,5.00,0.00,21.9,21.7,00.0,30.8,23.5,08.4,0000.0,0008.39,0004.84,0004.50
2022-01-27 10:26:00,,0828.6,4.98,0.00,21.8,21.6,00.0,30.8,23.5,08.3,0000.0,0008.21,0004.85,0004.52
2022-01-27 10:27:00,,0828.6,5.01,0.00,21.8,21.5,00.0,30.8,23.5,08.3,0000.0,0008.01,0004.88,0004.56
2022-01-27 10:28:00,,0828.6,5.01,0.00,21.8,21.3,00.0,30.8,23.5,08.3,0000.0,0008.05,0004.89,0004.57
2022-01-27 10:29:00,,0828.7,5.00,0.00,21.8,21.2,00.0,30.8,23.4,08.2,0000.0,0008.31,0004.86,0004.54
2022-01-27 10:30:00,,0828.6,4.99,0.00,21.7,21.1,00.0,30.8,23.3,08.3,0000.0,0008.29,0004.80,0004.49
2022-01-27 10:31:00,,0828.5,4.99,0.00,21.6,21.0,00.0,30.8,23.2,08.3,0000.0,0008.35,0004.76,0004.43
2022-01-27 10:32:00,,0829.1,5.00,0.00,21.6,20.8,00.0,30.7,23.1,08.3,0000.0,0008.47,0004.68,0004.37
2022-01-27 10:33:00,,0828.6,5.00,0.00,21.5,20.7,00.0,30.7,23.0,08.3,0000.0,0008.60,0004.63,0004.33
2022-01-27 10:34:00,,0828.7,5.00,0.00,21.5,21.1,00.0,30.7,23.1,08.4,0000.0,0009.40,0004.54,0004.27
2022-01-27 10:35:00,,0828.6,5.00,0.00,21.7,21.9,00.0,30.8,23.5,08.3,0000.0,0009.43,0004.48,0004.23
2022-01-27 10:36:00,,0828.7,5.01,0.00,21.8,22.7,00.0,30.8,23.8,08.2,0000.0,0009.39,0004.45,0004.17
2022-01-27 10:37:00,,0828.7,5.01,0.00,21.9,22.7,00.0,30.8,23.9,08.1,0000.0,0009.28,0004.40,0004.13
2022-01-27 10:38:00,,0828.6,5.00,0.00,21.9,22.3,00.0,30.8,23.6,08.0,0000.0,0009.21,0004.34,0004.07
2022-01-27 10:39:00,,0828.6,4.99,0.00,21.8,21.9,00.0,30.8,23.4,07.7,0000.0,0009.12,0004.22,0003.95
2022-01-27 10:40:00,,0828.7,5.01,0.00,21.7,21.6,00.0,30.8,23.3,07.7,0000.0,0008.70,0004.10,0003.83
2022-01-27 10:41:00,,0828.7,5.01,0.00,21.6,21.3,00.0,30.8,23.2,07.7,0000.0,0008.49,0003.99,0003.73
2022-01-27 10:42:00,,0828.7,5.01,0.00,21.6,21.1,00.0,30.8,23.1,07.9,0000.0,0008.19,0003.87,0003.62
2022-01-27 10:43:00,,0828.7,5.00,0.00,21.5,20.9,00.0,30.7,23.0,07.9,0000.0,0008.06,0003.81,0003.54
2022-01-27 10:44:00,,0828.7,5.01,0.00,21.5,20.8,00.0,30.7,22.9,07.9,0000.0,0008.46,0003.75,0003.45
2022-01-27 10:45:00,,0828.7,5.00,0.00,21.4,20.6,00.0,30.7,22.8,07.9,0000.0,0008.31,0003.69,0003.37
2022-01-27 10:46:00,,0828.9,5.00,0.00,21.4,20.6,00.0,30.6,22.8,08.0,0000.0,0007.73,0003.63,0003.30
2022-01-27 10:47:00,,0828.8,4.99,0.00,21.4,21.3,00.0,30.6,23.1,08.1,0000.0,0007.51,0003.59,0003.23
2022-01-27 10:48:00,,0828.7,5.01,0.00,21.6,22.3,00.0,30.7,23.4,08.1,0000.0,0007.51,0003.55,0003.17
2022-01-27 10:49:00,,0829.1,4.99,0.00,21.8,22.8,00.0,30.7,23.7,08.1,0000.0,0007.53,0003.54,0003.15
2022-01-27 10:50:00,,0828.7,5.00,0.00,21.8,22.4,00.0,30.7,23.6,08.0,0000.0,0007.53,0003.55,0003.17
2022-01-27 10:51:00,,0828.8,5.00,0.00,21.8,22.0,00.0,30.7,23.4,07.9,0000.0,0007.56,0003.58,0003.21
2022-01-27 10:52:00,,0828.7,5.00,0.00,21.7,21.6,00.0,30.7,23.3,07.9,0000.0,0007.70,0003.63,0003.23
2022-01-27 10:53:00,,0828.7,4.99,0.00,21.6,21.3,00.0,30.7,23.1,07.7,0000.0,0007.68,0003.61,0003.22
2022-01-27 10:54:00,,0828.7,5.01,0.00,21.5,21.1,00.0,30.7,23.0,07.8,0000.0,0007.64,0003.59,0003.18
2022-01-27 10:55:00,,0828.7,5.00,0.00,21.4,20.8,00.0,30.6,22.8,07.8,0000.0,0006.65,0003.54,0003.15
2022-01-27 10:56:00,,0828.8,4.99,0.00,21.3,20.6,00.0,30.6,22.7,07.9,0000.0,0005.58,0003.51,0003.13
2022-01-27 10:57:00,,0829.0,5.00,0.00,21.2,20.7,00.0,30.6,22.7,07.9,0000.0,0005.58,0003.47,0003.06
2022-01-27 10:58:00,,0829.0,5.01,0.00,21.4,21.5,00.0,30.6,23.0,07.9,0000.0,0005.41,0003.41,0002.96
2022-01-27 10:59:00,,0829.0,5.01,0.00,21.5,22.4,00.0,30.6,23.4,07.8,0000.0,0005.28,0003.34,0002.88
